Race Results for
Henleyville Road Race
Corning, CA
(Event Information)
View By:
Road Race on 09/24/2011

Note: Ranking points are NOT upgrade points. An explanation of ranking points can be found here.


Men - Cat4/5 - Master - 45-99

 Place Points NameCity, StateTime USAC #BibTeam
1355.13Craig DINGER   Davis, CA00:00.0 305628  973 Davis Bike Club Race Team
2365.34Bob EHARDT   Orangevale, CA00:00.0 286992  974 Bicycle Planet
3375.55Devinderjit SINGH   Yuba City, CA00:00.0 296818  994 Body Concepts
4385.76Leif PETERSON (1 - Cat5)   Chico, CA00:00.0 348306  985 chico corsa
5395.97Greg MCCORMAC   Danville, CA00:00.0 171823  982 Wells Fargo Racing
6406.18Matt CONIDARIS   Gold River, CA00:00.0 195944  970 Body Concepts
7416.39Randy FLOYD   Newcastle, CA00:00.0 90079  975 Body Concepts
8426.60Nelson FRINK   Sutter, CA00:00.0 268821  976 Body Concepts
9436.81Gary NEIMAN   Granite Bay, CA00:00.0 342158  984 Body Concepts
10447.02Steve ROSEFIELD   Pleasanton, CA00:00.0 298343  991 Tri Valley Velo
11457.23Adam PRESSMAN   Redding, CA00:00.0 40855  986 Owens Healthcare
12467.44Jack ARNEY   Lincoln, CA00:00.0 301427  967 Folsom Bike
13477.65Dave BRYANT   Gardnerville, NV00:00.0 303973  969 Body Concepts
14487.86Atac TULI   Davis, CA00:00.0 277938  997 Davis Bike Club Race Team
15498.07John ANNER   Albany, CA00:00.0 303115  966 Berkeley Bicycle Club
16508.28Mike BEYERS   Danville, CA00:00.0 304408  968 Tri_Valley Velo
17518.49Doug THOMAS (2 - Cat5)   Newcastle, CA00:00.0 343580  996 
18528.70Jim SCHARDT (3 - Cat5)   Stockton, CA00:00.0 331662  992 Michael David Winery
19538.91Thomas WOOD   Grass Valley, CA00:00.0 175841  999 Xtreme Outfitters
20549.12undefined REED   Pleasanton, CA00:00.0 304119  990 Tri Valley Velo
21559.33Edward CRUZ   Penn Valley, CA00:00.0 239696  971 
22569.54Dave MCGRATH   Colusa, CA00:00.0 323536  983 
23579.75Jeff FRUIT   Folsom, CA00:00.0 334016  977 
24589.96Tony Mainz   Paradise, CA00:00.0 22201  965 
DNSJohn WITKOWICKI   Sonoma, CA00:00.0 322286  998 Red Peleton
DNSJuan RAIGOZA   Redwood City, CA00:00.0 219477  989 Webcor / Alto Velo
DNSJim RADEMANN   Folsom, CA00:00.0 331800  988 Team Revs
DNSNorrie QUINN   Brentwood, CA00:00.0 271110  987 Tri Valley Velo
DNSDean KLOTZ   Cameron Park, CA00:00.0 139360  980 Revolutions
DNSToby KATZ   Salinas, CA00:00.0 290732  979 Velo Club Monterey Racing
DNSPatrick HAMPTON   Cambria, CA00:00.0 218958  978 ArtsCyclery.com / Wild Horse W
DQDavid DALTON   Danville, CA00:00.0 287122  972 Tri Valley Velo
DNPPat LOGAN   San Ramon, CA00:00.0 242583  981 Third Pillar
DNFJeff STEPHENS   Palo Cedro, CA00:00.0 344622  995 

Men - Cat1/2/3 - Master - 35-99

 Place Points NameCity, StateTime USAC #BibTeam
1Nabil SAMACEY   00:00.0  32 Kinetic GBI
2Jason ARINNO   Elk Grove, CA00:00.0 260928  31 Kinetic Cycles/GBI

Men - Cat1/2/3 - Master - 45-99

 Place Points NameCity, StateTime USAC #BibTeam
1264.10Tony REID (1 - Cat3)   Sacramento, CA00:00.0 29458  682 SAFEWAY/PureRed Creative/Bicyc
2277.96Kerry STOCKWELL   Folsom, CA00:00.0 34228  683 Rio Strada Racing
3291.82Joseph FOSTER   Alamo, CA00:00.0 286823  684 Wells Fargo Racing Team
4305.68Robert PASCO   Belmont, CA00:00.0 136970  676 SAFEWAY/PureRed Creative/Bicyc
5319.54Andrew ADELMAN   Portola Valley, CA00:00.0 300501  680 CoreTechs Cycling Team
6333.40David MONTGOMERY   Olympic Valley, CA00:00.0 302935  688 Truckee Bicycle Team
7347.26Jan ELSBACH   Davis, CA00:00.0 200149  678 VOS Racing
8361.12Fred SCHNAARS   Davis, CA00:00.0 65032  681 Davis Bike Club Race Team
9374.98John STEGGALL   Davis, CA00:00.0 135891  691 Davis Bike Club Race Team
10388.84Richard NICHOLS   Danville, CA00:00.0 286421  689 Tri Valley Velo
11402.70Erle MARTIN   Saint Helena, CA00:00.0 210062  687 Cal Giant
12416.56Eric LAFRANCHI   Calistoga, CA00:00.0 199575  685 IronDataThirstyBearCycling.com
DNSDonald LANGLEY   Morgan Hill, CA00:00.0 20327  686 Morgan Stanley Smith Barney/Sp
DNPSpencer KENNER   Davis, CA00:00.0 86651  677 Rocknasium
DNFMark ROBERTSON   Oakland, CA00:00.0 237380  690 Taleo Racing
DNFJohn PAULEY   Redwood City, CA00:00.0 27452  679 CoreTechs Cycling Team

Men - Cat1/2

 Place Points NameCity, StateTime USAC #BibTeam
1183.54David ALBRECHT   Chico, CA00:00.0 47091  944 Chico Corsa Cycling Team
2203.25Joe DICKERSON   Los Gatos, CA00:00.0 306664  940 McGuire Cycling Team
3222.96Kenny STRICKLAND   San Ramon, CA00:00.0 270965  948 SJBC
4242.67Rob VAN KIRK   Ashton, ID00:00.0 48499  949 Team Jackson Hole
5262.38Rainier SCHAEFER   Sanfrancisco, CA00:00.0 304249  941 Team Mike's Bikes
6282.09Taylor BERTRAND-BARRETT   Sonoma, CA00:00.0 274643  943 Red Peloton
7301.80Will BRICKLER   Folsom, CA00:00.0 224302  945 Bicycle Planet
8321.51Anthony FERRETTI   Oroville, CA00:00.0 283185  942 Chico Corsa Cycling Club
9341.22Jeffrey GALLAND   Paradise, CA00:00.0 127804  946 CHICO CORSA/SIERRA NEVADA
DNFMichael PAINTER   Chico Ca00:00.0 289184  947 Chico Corsa

Men - Cat 3

 Place Points NameCity, StateTime USAC #BibTeam
1335.52Corey DUREN   Chico, CA00:00.0 320490  285 Chico Corsa Cycling Club
2348.30Kirk EVANS   Sacramento, CA00:00.0 259534  288 Team Becher+
3361.08Paul TAYLOR   Brentwood, CA00:00.0 207281  298 Metromint Cycling
4373.86Jason HANCHETT   Albany, CA00:00.0 255669  290 Berkeley Bicycle Club (BBC)
5386.64Gregory SPANIER   Alamo, CA00:00.0 332082  297 Taleo Racing
6399.42Adam THATCHER   Chico, CA00:00.0 311983  299 Chico Corsa
7412.20Jason BUCKLEY   Sonoma, CA00:00.0 274029  286 Colavita Racing
8424.98Ethan SOPENSKI   Chardon Ohio00:00.0 329942  287 SJBC
9437.76Lance NEWEY   Fair Oaks, CA00:00.0 202161  293 Team Bicycles Plus/Sierra Neva
10450.54Sascha MESSNER   Fremont, CA00:00.0 280562  283 Taleo Racing
11463.32Steven MIELICH   San Jose, CA00:00.0 136178  292 SJBC
12476.10Jonathan RACINE   San Jose, CA00:00.0 200129  295 Great Basin Imaging | Kinetic
13488.88John GALLAGHER   San Ramon, CA00:00.0 304284  289 Taleo Racing
14501.66undefined Lunceford Sr   El Dorado Hills, CA00:00.0 273343  291 Bicycle Planet
DNPAndreas SCHULTEN   Cameron Park, CA00:00.0 248096  296 Bicycle Planet
DNFRobert ORCUTT   Scotts Valley, CA00:00.0 269340  294 Webcor/Alto Velo
DNFKalani HINES   San Francisco, CA00:00.0 219316  284 Metromint Cycling

Men - Cat 4

 Place Points NameCity, StateTime USAC #BibTeam
1474.97Sean MOLINA   Chico, CA00:00.0 308804  731 Chico Corsa Cycling Club
2515.28Casey FALLON   Sacramento, CA00:00.0 331532  732 Rio Strada Racing
3555.59Gabe MULTER   Santa Cruz, CA00:00.0 331142  746 San Jose Bicycle Club
DNSJustin WIDLUND   Redwood City, CA00:00.0 331228  743 NA

Men - Cat 4 - Master - 35-99

 Place Points NameCity, StateTime USAC #BibTeam
1434.96Oliver RYAN   Sausalito, CA00:00.0 304360  344 R4R-Make A Wish
2447.10Gregg ROH   Sacramento, CA00:00.0 58416  343 Sacramento Golden Wheelmen
3459.24Paul HIGLEY   Redding, CA00:00.0 324504  339 Team Revolutions
4471.38Francis GOLDSBERRY   Sacramento, CA00:00.0 132927  336 Sacramento Golden Wheelmen
5483.52Joshua GRASS   Walnut Creek, CA00:00.0 13916  337 
6495.66Noah CAMPBELL-LUND   Nevada City, CA00:00.0 333700  333 SHO-AIR/SERT
7507.80Brian PRAHL   Sacaramento, CA00:00.0 305088  342 Sacramento Golden Wheelmen
8519.94Troy UNDERWOOD   Rancho Cordova, CA00:00.0 238691  345 Sacramento Golden Wheelmen
9532.08Reese GARY   Pilot Hill, CA00:00.0 12902  357 Team Revolutions
10544.22Mike MUNOZ   Cameronpark, CA00:00.0 307140  341 Revolutions
11556.36Tom CUTTER   Carmichael, CA00:00.0 285993  335 Sacramento Golden Wheelmen
12568.50Alan HITCH   Woodland, CA00:00.0 298754  340 Davis Bike Club Race Team
13580.64Sean WATKINS   Calistoga, CA00:00.0 116176  346 NA
DNSEric HESS   Windsor, CA00:00.0 16032  338 
DNSKenny BAILEY   Folsom, CA00:00.0 305104  332 Body Concepts
DNFJohn COLLINS   Folsom, CA00:00.0 231774  334 Team Revolutions

Men - Cat 5

 Place Points NameCity, StateTime USAC #BibTeam
1523.46Lance MCPEAK   Walla Walla, WA00:00.0 335916  445 Victory Velo
2545.64Richard NAGEL   Vacaville, CA00:00.0 345938  498 Grass Roots Racing pb Vinny th
3567.82Garrett MARKING   Paradise, CA00:00.0 345846  444 
4590.00Jeffrey CLAUSE   San Jose, CA00:00.0 356102  488 
DNSJon KOCH   00:00.0  443 

Men - Cat 5 - Master - 35-99

 Place Points NameCity, StateTime USAC #BibTeam
1523.83Keith LYON   Sacramento, CA00:00.0 330278  847 Davis Bike Club Race Team
2540.37Stanton LEE   Sacramento, CA00:00.0 334020  846 Sacramento Golden Wheelmen
3Robert SMITH   00:00.0  848 
4573.45Michael WEBB   El Dorado Hills, CA00:00.0 305939  849 Team Revolutions
5Brad JOHANSON   00:00.0  845 

Men - Master - 55-99

 Place Points NameCity, StateTime USAC #BibTeam
1360.49Gregory BOLLELLA   Redwood City, CA00:00.0 235126  530 Webcor / Alto Velo
2375.67Phil SCHMIDT   Orangevale, CA00:00.0 334806  528 Sacramento Golden Wheelman
3390.85Frank WINTERS (1 - Cat3)   Susanville, CA00:00.0 54032  549 Reno Wheelmen
4406.03Bruce COFFEY   Newman, CA00:00.0 271696  532 SJBC
5421.21Joe STORM   Alamo00:00.0 304801  547 Taleo Racing
6436.39Peter MEYER   Mount Aukum, CA00:00.0 219925  539 Bicycle Planet
7451.57Kevin MCSPADDEN   Woodland, CA00:00.0 23838  538 Davis Bike Club Race Team
8466.75Jim SHARP   Winters, CA00:00.0 277576  545 Davis Bike Club
9481.93Thomas PREISLER   Los Gatos, CA00:00.0 294002  541 Los Gatos
10497.11Thomas MCDONOUGH   Ukiah, CA00:00.0 68163  537 Fightin' Bobas
11512.29Alfred KERR   Willits, CA00:00.0 262541  536 Fightin' Bobas
12527.47Sid NOYES   Eureka, CA00:00.0 54640  540 Revolution Bicycles
13542.65Phil WEINTRAUB   Chico, CA00:00.0 61122  548 Chico Corsa/Sierra Nevada
14557.83Richard STERN   Sacramento, CA00:00.0 357939  546 Unattached
DNSAlan ROWLAND   Davis, CA00:00.0 56017  544 Rocknasium
DNSKeith RITTER (Cat4)   Redding, CA00:00.0 286668  543 Redding Velo
DNSMichael CONNOLLY (Cat5)   Fairfield, CA00:00.0 305830  533 Davis
DNSDavid CLAY   Livermore, CA00:00.0 195208  531 Topsport
DNPFrederick PROUDMAN   Foley, AL00:00.0 46135  542 Taleo Racing
DNPScott HERMAN (Cat4)   Carson City, NV00:00.0 255513  535 Great Basin Imaging / Kinetic
DNPGary FOWLER   Chico, CA00:00.0 358456  534 
DNPDouglas DRAPER   Concord, CA00:00.0 290031  529 

Women - Cat1/2/3

 Place Points NameCity, StateTime USAC #BibTeam
1323.31Rikke PREISLER   Redwood City, CA00:00.0 293725  899 Metromint Cycling
2419.43Marianne HERNANDEZ   Davis, CA00:00.0 68813  896 Davis Bike Club
3515.55Cybil SILBERMAN (1 - Cat3)   San Francisco, CA00:00.0 325510  895 Early Bird Womens Developmenta
DNSMary MAROON   Sacramento, CA00:00.0 219555  898 Webcor/AltoVelo
DNSJennifer KALICH   Aromas00:00.0 297754  897 Cal Giant Cycling Team

Women - Cat 4

 Place Points NameCity, StateTime USAC #BibTeam
1470.86Shannon MITCHELL   Santa Rosa, CA00:00.0 307520  104 Red Peloton
2477.87Heather MCDONALD   San Francisco, CA00:00.0 307890  130 Metromint Cycling
3484.88Lauren RIGNEL   Santa Rosa, CA00:00.0 332142  131 Red Peloton
4491.89Kathryn STYER   San Francisco, CA00:00.0 309920  135 Early Bird Womens Developmenta
5498.90Aliya TRAFICANTE   Chico, CA00:00.0 310825  108 Team TIBCO II
6505.91Maryann SCHRUPP   Reno, NV00:00.0 288460  133 Team TIBCO II
7512.92Stella ROSEFIELD   Pleasanton, CA00:00.0 304152  106 Tri Valley Velo
8519.93Danielle AUBELE   Pittsburgh Pa00:00.0 360288  100 Velo Girls
9526.94Sabine HOFFMANN   Berkeley, CA00:00.0 357744  102 Early Bird Women's Development
10533.95Lori WALSH   San Jose, CA00:00.0 298981  110 Velo Girls
11540.96Jan REED   Menlopark, CA00:00.0 310370  105 Velo Girls
12547.97Tammy WON   San Jose, CA00:00.0 343060  113 Velo Girls
13554.98Marja NOUSIAINEN   Menlo Park, CA00:00.0 203255  134 
14561.99Lorri Lee LOWN   Redwood City, CA00:00.0 187201  103 Velo Girls
15569.00Kerry WILSON   Menlo Park, CA00:00.0 350172  111 Velo Girls
16576.01Danielle SPIRES   Oakland, CA00:00.0 303311  107 Velo Girls
17583.02Joule VOELZ   San Francisco, CA00:00.0 360291  109 Velo Girls
18590.03Annie GIANAKOS   Mountain View, CA00:00.0 360289  101 Velo Girls
DNFHeidi LITTENBERG   Reno, NV00:00.0 286191  132 Lost River Cycling Club
DNFCatherine WOHLWEND   00:00.0  112 

Report missing or incorrect license numbers

Volkswagen
Sierra NevadaCUOREShimanoUSACDFBonk BreakerSpy
UCI USA Cycling is the official governing body for all disciplines of competitive cycling in the United States. The 501c3, membership-based organization aims both to achieve sustained success in international cycling competition and to grow competitive cycling in America while delivering an exceptional customer experience.
View Children's Online Privacy Protection Policy
US Olympic Committee